Location: Helsinki
(60.1699°N, 24.9384°E)
Time: 00:57:37
(UTC+02:00)

ISS - Pass Details

Date: 04 December 2021
Orbit: 413 x 422 km, 51.6° (Epoch: 22 January)

Event Time Altitude Azimuth Distance (km) Brightness Sun altitude
Rises 17:15:21 0° 258° (WSW) 2,387 1.9 -12.7°
Reaches altitude 10° 17:17:59 10° 236° (WSW) 1,518 0.5 -13.0°
Maximum altitude 17:20:13 16° 195° (SSW) 1,181 -1.0 -13.2°
Drops below altitude 10° 17:22:26 10° 155° (SSE) 1,512 -1.0 -13.5°
Enters shadow 17:24:31 - 136° (SE) 2,178 -0.4 -13.7°
